Weather History for KGTB - March, 2012

Change the Weather History Date:

Monday, March 19, 2012

  Actual Average Record
Temperature  
Mean Temperature 64 °F -  
Max Temperature 76 °F 34 °F 76 °F (2012)
Min Temperature 53 °F 19 °F 5 °F (1997)
Degree Days  
Heating Degree Days 1    
Growing Degree Days 14 (Base 50)    
Moisture  
Dew Point 56 °F    
Average Humidity 79    
Maximum Humidity 99    
Minimum Humidity 56    
Precipitation  
Precipitation 0.00 in - - ()
Sea Level Pressure  
Sea Level Pressure 30.15 in    
Wind  
Wind Speed 5 mph (South)    
Max Wind Speed 9 mph    
Max Gust Speed -    
Visibility 10 miles    
Events      
Averages and records for this station are not official NWS values.
T = Trace of Precipitation, MM = Missing Value Source: NWS Daily Summary

Daily Weather History Graph

Daily Weather History Graph

Search for Another Location

Airport or City:

Trip Planner

Search our weather history database for the weather conditions in past years. The results will help you decide how hot, cold, wet, or windy it might be!

Date:

Astronomy

Mar. 19, 2012 Rise Set
Actual Time 7:07 AM EDT 7:14 PM EDT
Civil Twilight 6:38 AM EDT 7:43 PM EDT
Nautical Twilight 6:04 AM EDT 8:17 PM EDT
Astronomical Twilight 5:30 AM EDT 8:51 PM EDT
Moon 5:23 AM EDT (3/19) 4:36 PM EDT (3/19)
Length of Visible Light 13h 05m
Length of Day
12h 07m
Waning Crescent, 8% of the Moon is Illuminated
Mar 19
Waning Crescent
Mar 22
New
Mar 30
First Quarter
Apr 6
Full
Apr 13
Last Quarter

Hourly Weather History & Observations

Time (EDT) Temp. Dew Point Humidity Pressure Visibility Wind Dir Wind Speed Gust Speed Precip Events Conditions
12:55 AM 57.9 °F 54.1 °F 87% 30.11 in 10.0 mi SSE 3.5 mph - N/A   Mostly Cloudy
1:55 AM 57.0 °F 53.8 °F 89% 30.11 in 10.0 mi SSE 6.9 mph - N/A   Scattered Clouds
2:55 AM 55.6 °F 53.8 °F 94% 30.11 in 10.0 mi South 4.6 mph - N/A   Partly Cloudy
3:55 AM 54.3 °F 53.6 °F 97% 30.11 in 10.0 mi SE 4.6 mph - N/A   Clear
4:55 AM 54.9 °F 54.5 °F 99% 30.12 in 10.0 mi SSE 5.8 mph - N/A   Mostly Cloudy
5:55 AM 55.9 °F 54.5 °F 95% 30.14 in 10.0 mi SSE 5.8 mph - N/A   Overcast
6:55 AM 53.4 °F 53.2 °F 99% 30.14 in 10.0 mi SE 8.1 mph - N/A   Clear
7:55 AM 54.1 °F 53.2 °F 97% 30.16 in 10.0 mi SE 8.1 mph - N/A   Overcast
8:55 AM 57.7 °F 53.6 °F 86% 30.16 in 10.0 mi SSE 6.9 mph - N/A   Clear
9:55 AM 62.8 °F 55.2 °F 76% 30.17 in 10.0 mi SSE 3.5 mph - N/A   Clear
10:55 AM 67.3 °F 57.2 °F 70% 30.17 in 10.0 mi Calm Calm - N/A   Clear
11:55 AM 70.5 °F 58.1 °F 65% 30.17 in 10.0 mi Calm Calm - N/A   Clear
12:55 PM 72.5 °F 58.1 °F 60% 30.16 in 10.0 mi NW 4.6 mph - N/A   Partly Cloudy
1:55 PM 75.7 °F 59.2 °F 56% 30.16 in 10.0 mi West 6.9 mph - N/A   Mostly Cloudy
2:55 PM 75.6 °F 59.0 °F 56% 30.14 in 10.0 mi WNW 9.2 mph - N/A   Clear
3:55 PM 74.8 °F 58.3 °F 56% 30.13 in 10.0 mi Variable 6.9 mph - N/A   Clear
4:55 PM 74.1 °F 57.9 °F 57% 30.12 in 10.0 mi Variable 4.6 mph - N/A   Clear
5:55 PM 73.9 °F 57.6 °F 56% 30.13 in 10.0 mi Calm Calm - N/A   Clear
6:55 PM 70.2 °F 58.8 °F 67% 30.14 in 10.0 mi WNW 3.5 mph - N/A   Clear
7:55 PM 64.6 °F 57.9 °F 79% 30.16 in 10.0 mi West 3.5 mph - N/A   Clear
8:55 PM 62.4 °F 57.7 °F 85% 30.17 in 10.0 mi Calm Calm - N/A   Clear
9:55 PM 63.0 °F 57.4 °F 82% 30.17 in 10.0 mi SSE 5.8 mph - N/A   Clear
10:55 PM 59.7 °F 55.8 °F 87% 30.18 in 10.0 mi South 4.6 mph - N/A   Clear
11:55 PM 57.9 °F 55.0 °F 90% 30.19 in 10.0 mi SSE 5.8 mph - N/A   Clear